GW5292 Weather Reports


time (UTC)temp
F
wind
direction
speed
knots
gust
knots
rain 1hr
in
rain 24hr
in
rain mn
in
humidity
%
barometer
mb
20260906081530 57 128 0.0 0.0 0.00 0.00 0.00 95 1013.1
20260906080013 57 128 0.0 0.0 0.00 0.00 0.00 95 1013.1
20260906074513 58 128 0.0 1.7 0.00 0.00 0.00 95 1013.1
20260906073015 58 128 0.0 0.0 0.00 0.00 0.00 95 1012.9
20260906071518 58 128 0.0 0.0 0.00 0.00 0.00 95 1012.9
20260906070018 58 128 0.0 0.0 0.00 0.00 0.00 95 1013.0
20260906064515 58 128 0.0 0.0 0.00 0.00 0.00 95 1013.0
20260906063021 59 128 0.0 0.0 0.00 0.00 0.00 94 1013.0
20260906061519 59 128 0.0 0.0 0.00 0.00 0.00 94 1013.1
20260906060018 59 128 0.0 0.0 0.00 0.00 0.00 94 1013.2
20260906054518 59 128 0.0 0.0 0.00 0.00 0.00 94 1013.4
20260906053026 59 128 0.0 0.9 0.00 0.00 0.00 94 1013.4
20260906051511 60 128 0.0 0.0 0.00 0.00 0.00 94 1013.4
20260906050044 60 128 0.0 0.0 0.00 0.00 0.00 94 1013.3
20260906044523 60 128 0.0 0.0 0.00 0.00 0.00 94 1013.5
20260906043003 60 128 0.0 0.0 0.00 0.00 0.00 93 1013.6
20260906041509 60 128 0.0 0.0 0.00 0.00 0.00 93 1013.4
20260906040014 61 128 0.0 0.0 0.00 0.00 0.00 93 1013.3
20260906034531 61 128 0.0 1.7 0.00 0.00 0.00 93 1013.4
20260906033028 61 128 0.0 0.0 0.00 0.00 0.00 93 1013.2
20260906031504 62 128 0.0 1.7 0.00 0.00 0.00 92 1013.2
20260906030011 62 128 0.0 0.0 0.00 0.00 0.00 92 1013.2
20260906024515 62 128 0.0 0.0 0.00 0.00 0.00 92 1013.0
20260906023027 62 128 0.0 0.0 0.00 0.00 0.00 91 1012.9
20260906021530 63 128 0.0 0.0 0.00 0.00 0.00 90 1013.0
20260906020008 63 128 0.0 0.0 0.00 0.00 0.00 89 1012.9
20260906014512 64 128 0.0 0.0 0.00 0.00 0.00 88 1012.9
20260906013021 64 128 0.0 0.0 0.00 0.00 0.00 87 1012.9
20260906011526 66 128 0.0 1.7 0.00 0.00 0.00 85 1012.8
20260906010032 66 128 0.0 0.0 0.00 0.00 0.00 82 1012.6
20260906004512 67 128 0.0 0.0 0.00 0.00 0.00 81 1012.2
20260906003018 68 128 0.0 0.0 0.00 0.00 0.00 79 1012.1
20260906001525 68 128 0.0 0.0 0.00 0.00 0.00 79 1012.0
20260906000031 69 128 0.0 1.7 0.00 0.00 0.00 76 1011.9
20260905234533 71 128 0.0 1.7 0.00 0.00 0.00 74 1011.7
20260905233021 73 96 0.0 0.0 0.00 0.00 0.00 69 1011.4
20260905231518 74 96 0.0 1.7 0.00 0.00 0.00 65 1011.3
20260905230026 75 98 0.0 1.7 0.00 0.00 0.00 64 1011.3
20260905224527 75 16 0.0 1.7 0.00 0.00 0.00 62 1011.3
20260905223035 76 36 0.9 1.7 0.00 0.00 0.00 59 1011.1
20260905221514 76 331 1.7 3.5 0.00 0.00 0.00 59 1011.2
20260905220024 77 21 0.9 4.3 0.00 0.00 0.00 56 1011.1
20260905214526 78 350 0.9 3.5 0.00 0.00 0.00 56 1011.0
20260905213005 78 346 2.6 7.0 0.00 0.00 0.00 54 1010.9
20260905211512 79 321 1.7 2.6 0.00 0.00 0.00 54 1010.8
20260905210019 78 28 0.9 3.5 0.00 0.00 0.00 54 1010.9
20260905204524 78 130 0.0 2.6 0.00 0.00 0.00 57 1010.9
20260905203029 78 28 0.0 5.2 0.00 0.00 0.00 54 1010.9
20260905201510 78 20 1.7 5.2 0.00 0.00 0.00 53 1011.1
20260905200028 78 15 2.6 3.5 0.00 0.00 0.00 55 1011.2
20260905194524 79 360 2.6 4.3 0.00 0.00 0.00 52 1011.1
20260905193030 78 38 1.7 7.0 0.00 0.00 0.00 51 1011.2
20260905191529 78 20 1.7 6.1 0.00 0.00 0.00 54 1011.2
20260905190014 79 352 1.7 4.3 0.00 0.00 0.00 54 1011.3
20260905184523 77 339 2.6 7.0 0.00 0.00 0.00 57 1011.5
20260905183029 77 296 1.7 4.3 0.00 0.00 0.00 57 1011.5
20260905181530 77 276 0.9 4.3 0.00 0.00 0.00 58 1011.6
20260905180012 78 238 1.7 5.2 0.00 0.00 0.00 59 1011.6
20260905174528 77 360 1.7 5.2 0.00 0.00 0.00 59 1011.8
20260905173026 78 352 0.9 5.2 0.00 0.00 0.00 61 1011.7
20260905171528 78 21 0.9 4.3 0.00 0.00 0.00 59 1011.8
20260905170032 79 18 1.7 2.6 0.00 0.00 0.00 61 1011.8
20260905164516 77 9 0.9 5.2 0.00 0.00 0.00 58 1012.0
20260905163023 78 200 0.0 3.5 0.00 0.00 0.00 63 1012.3
20260905161528 77 352 1.7 4.3 0.00 0.00 0.00 60 1012.4
20260905160046 76 19 0.9 2.6 0.00 0.00 0.00 62 1012.6
20260905154539 76 185 0.9 3.5 0.00 0.00 0.00 61 1012.5
20260905153015 76 186 1.7 5.2 0.00 0.00 0.00 62 1012.7
20260905151527 76 340 0.9 3.5 0.00 0.00 0.00 65 1012.6
20260905150031 76 360 0.0 4.3 0.00 0.00 0.00 66 1012.6
20260905144544 75 322 2.6 5.2 0.00 0.00 0.00 67 1012.4
20260905143037 74 323 2.6 6.1 0.00 0.00 0.00 68 1012.3
20260905141540 74 25 1.7 5.2 0.00 0.00 0.00 68 1012.4
20260905140030 73 22 3.5 7.0 0.00 0.00 0.00 68 1012.6
20260905134530 73 352 1.7 4.3 0.00 0.00 0.00 73 1012.6
20260905133047 73 352 0.9 5.2 0.00 0.00 0.00 73 1012.5
20260905131550 72 306 0.9 3.5 0.00 0.00 0.00 73 1012.5
20260905130027 71 104 0.0 1.7 0.00 0.00 0.00 76 1012.4
20260905124529 71 276 0.0 1.7 0.00 0.00 0.00 78 1012.4
20260905123034 70 240 0.0 1.7 0.00 0.00 0.00 78 1012.3
20260905121514 70 229 0.0 1.7 0.00 0.00 0.00 81 1012.2
20260905120028 69 288 0.0 0.0 0.00 0.00 0.00 83 1012.3
20260905114550 69 308 0.0 0.0 0.00 0.00 0.00 85 1012.2
20260905113034 69 308 0.0 0.0 0.00 0.00 0.00 84 1012.3
20260905111533 69 308 0.0 1.7 0.00 0.00 0.00 84 1012.2
20260905110027 69 304 0.0 0.0 0.00 0.00 0.00 83 1012.0
20260905104529 69 304 0.0 1.7 0.00 0.00 0.00 80 1011.8
20260905103036 69 314 0.0 0.9 0.00 0.00 0.00 85 1011.4
20260905101535 69 285 0.0 1.7 0.00 0.00 0.00 85 1011.3
20260905100019 69 284 0.0 0.0 0.00 0.00 0.00 85 1011.2
20260905094524 69 329 0.0 0.0 0.00 0.00 0.00 84 1011.1
20260905093004 70 329 0.0 0.0 0.00 0.00 0.00 82 1011.1
20260905091510 70 329 0.0 2.6 0.00 0.00 0.00 80 1011.0
20260905090016 70 309 0.0 1.7 0.00 0.00 0.00 81 1011.1
20260905084526 70 349 0.0 1.7 0.00 0.00 0.00 83 1011.1
20260905083026 69 298 0.0 0.9 0.00 0.00 0.00 86 1011.1